435  
ASUS43 KMPX 210010  
RWRMN  
WEATHER ROUNDUP FOR MINNESOTA  
NATIONAL WEATHER SERVICE TWIN CITIES/CHANHASSEN MN  
600 PM CST THU FEB 20 2020  
 
NOTE: "FAIR" INDICATES FEW OR NO CLOUDS BELOW 12,000 FEET WITH NO  
SIGNIFICANT WEATHER AND/OR S TO VISIBILITY
. N/A MEANS  
CURRENT SKY AND/OR WEATHER CONDITIONS ARE NOT AVAILABLE.  
 
MNZ060>063-068>070-210100-  
TWIN CITIES METRO  
 
CITY SKY/WX TMP DP RH WIND PRES REMARKS
 
TWIN CITIES FAIR 13 -5 44 SW10 30.61F WCI 0  
6HR MIN TEMP: 7; 6HR MAX TEMP: 14;  
 
ST PAUL FAIR 13 -8 39 S6 30.63F WCI 4  
CRYSTAL FAIR 12 -4 48 S7 30.58F WCI 1  
BLAINE CLEAR 14 -2 48 S12 30.58F WCI 0  
LAKEVILLE N/A 9 -2 61 S3 30.61F  
EDEN PRAIRIE FAIR 9 -3 58 S8 30.60F WCI -3  
6HR MIN TEMP: 4; 6HR MAX TEMP: 11;  
 
SOUTH ST PAUL FAIR 11 -5 47 S6 30.62S WCI 2  
LAKE ELMO CLEAR 10 -2 56 S10 30.60F WCI -3  

 
MNZ001>005-007-008-013>017-022>024-027-028-210100-  
NORTHWEST MINNESOTA  
 
CITY SKY/WX TMP DP RH WIND PRES REMARKS
 
BEMIDJI FAIR 20 9 63 SW9 30.35F WCI 9  
HALLOCK FAIR 12 10 92 S21 30.28F WCI -6  
ROSEAU FAIR 14 7 73 SW14 30.28F WCI -1  
WARROAD FAIR 14 7 73 SW15G23 30.27F WCI -1  
THIEF RVR FALL FAIR 11 6 81 S17 30.34F WCI -6  
CROOKSTON FAIR 14 9 79 S17 30.36F WCI -3  
FOSSTON FAIR 10 7 85 S20 30.37F WCI -8  
DETROIT LAKES FAIR 18 10 73 S9 30.41F WCI 6  
MOORHEAD FAIR 18 9 68 S10 30.44F WCI 6  
PARK RAPIDS FAIR 13 3 64 SW10 30.41F WCI 0  
MAHNOMEN FAIR 13 7 77 S14 30.38F WCI -3  

 
MNZ006-009>011-018-025>026-210100-  
NORTH CENTRAL MINNESOTA  
 
CITY SKY/WX TMP DP RH WIND PRES REMARKS
 
BAUDETTE FAIR 17 6 62 SW10 30.27F WCI 5  
FLAG ISLAND N/A 12 3 67 SW12G17 30.23S WCI -2  
INTL FALLS FAIR 22 9 57 SW10 30.27F WCI 11  
6HR MIN TEMP: 14; 6HR MAX TEMP: 25;  
 
WASKISH FAIR 18 9 68 W6 30.32F WCI 9  
BIG FORK FAIR 18 7 62 S12 30.38F WCI 5  
GRAND RAPIDS FAIR 17 6 62 SW8 30.40F WCI 7  
CRANE LAKE FAIR 18 5 57 SW5 30.34F WCI 11  
ORR FAIR 18 3 53 S6 30.30F WCI 9  
COOK FAIR 18 7 62 SW8 30.33F WCI 7  
WALKER FAIR 16 5 62 SW8 30.39F WCI 5  

 
MNZ012-019>021-037-210100-  
NORTHEAST MINNESOTA  
 
CITY SKY/WX TMP DP RH WIND PRES REMARKS
 
DULUTH FAIR 15 -1 49 SW14G23 30.39F WCI 0  
6HR MIN TEMP: 10; 6HR MAX TEMP: 17;  
 
HIBBING FAIR 17 3 54 SW8 30.36F WCI 7  
EVELETH FAIR 15 0 52 S7 30.37F WCI 5  
DULUTH HARBOR CLOUDY 16 -6 38 SW15G23 30.48F WCI 1  
TWO HARBORS FAIR 16 -6 38 SW12G17 30.40F WCI 3  
SILVER BAY FAIR 16 -4 41 SW7 30.39S WCI 6  
GRAND MARAIS N/A 24 7 48 W14G24 30.35F WCI 12  
G MARAIS ARPRT FAIR 16 0 48 SW9G16 30.26F WCI 4  

 
MNZ029>031-032-039>041-046>048-054>057-064-210100-  
WEST CENTRAL MINNESOTA  
 
CITY SKY/WX TMP DP RH WIND PRES REMARKS
 
FERGUS FALLS FAIR 12 9 85 S12 30.48F WCI -2  
WHEATON N/A 19 12 73 S8 30.50S WCI 9  
ALEXANDRIA FAIR 13 6 74 S10 30.47F WCI 0  
ELBOW LAKE FAIR 12 8 81 S14 30.48F WCI -3  
WADENA FAIR 12 7 79 SW8 30.45F WCI 1  
GLENWOOD FAIR 12 9 85 S13 30.49F WCI -3  
BENSON FAIR 14 9 79 S9 30.53F WCI 2  
ORTONVILLE FAIR 21 12 68 S6 30.49F WCI 14  
MADISON FAIR 19 12 73 S8 30.52F WCI 9  
WILLMAR FAIR 16 9 73 CALM 30.56F  

 
MNZ033>034-036-042>043-049>051-058-059-210100-  
CENTRAL MINNESOTA  
 
CITY SKY/WX TMP DP RH WIND PRES REMARKS
 
ST CLOUD FAIR 9 -3 58 S12 30.54F WCI -6  
6HR MIN TEMP: 5; 6HR MAX TEMP: 13;  
 
SAUK CENTRE N/A 12 5 74 S9 30.50F WCI -1  
PAYNESVILLE FAIR 11 6 78 S6 30.53F WCI 2  
AITKIN FAIR 14 1 57 S7 30.44F WCI 4  
PINE RIVER FAIR 16 5 62 SW6 30.46F WCI 7  
BRAINERD FAIR 17 4 56 SW14 30.47F WCI 3  
STAPLES FAIR 12 3 67 S9 30.46F WCI 0  
LONG PRAIRIE FAIR 12 5 73 S8 30.49F WCI 1  
LITTLE FALLS FAIR 12 3 67 S7 30.52F WCI 2  
CAMP RIPLEY FAIR 12 2 65 S8 30.51F WCI 1  
LITCHFIELD N/A 10 3 72 CALM 30.55F  
BUFFALO FAIR 8 -2 62 MISG 30.58F  
MAPLE LAKE N/A 9 0 65 CALM 30.57F  
HUTCHINSON FAIR 10 2 69 S5 30.58F WCI 2  

 
MNZ037-044-045-052-053-210100-  
EAST CENTRAL MINNESOTA  
 
CITY SKY/WX TMP DP RH WIND PRES REMARKS
 
PRINCETON FAIR 10 -4 52 S7 30.55F WCI 0  
MORA FAIR 12 -4 48 SW7 30.54F WCI 2  
CAMBRIDGE FAIR 12 -4 48 S6 30.56F WCI 3  
RUSH CITY FAIR 11 -8 41 S5 30.55F WCI 3  
MOOSE LAKE FAIR 14 -4 44 S6 30.46F WCI 5  
HINCKLEY FAIR 12 -2 52 S7 30.52F WCI 2  
CLOQUET FAIR 16 0 48 SW8 30.42F WCI 5  
MCGREGOR FAIR 14 5 67 SW7 30.45F WCI 4  

 
MNZ071>073-080-081-089-090-097-098-210100-  
SOUTHWEST MINNESOTA  
 
CITY SKY/WX TMP DP RH WIND PRES REMARKS
 
MONTEVIDEO FAIR 19 10 68 SW9 30.53F WCI 9  
GRANITE FALLS FAIR 17 12 81 CALM 30.55F  
CANBY FAIR 22 15 72 W17G25 30.50F WCI 8  
MARSHALL FAIR 21 13 71 S8 30.53F WCI 11  
REDWOOD FALLS FAIR 15 8 73 S7 30.56F WCI 5  
OLIVIA FAIR 16 10 79 S8 30.55F WCI 5  
PIPESTONE FAIR 19 14 79 MISG 30.53F  
WINDOM FAIR 14 9 79 SW14 30.56F WCI -1  
WORTHINGTON FAIR 17 10 74 SW16 30.56F WCI 2  

 
MNZ065>067-074>077-082>085-091>093-210100-  
SOUTH CENTRAL MINNESOTA  
 
CITY SKY/WX TMP DP RH WIND PRES REMARKS
 
MANKATO FAIR 9 2 73 S7 30.62F WCI -2  
NEW ULM FAIR 10 1 67 S9 30.59F WCI -2  
ST JAMES N/A 12 3 67 S8 30.60F WCI 1  
FAIRMONT FAIR 15 5 64 SW12 30.62F WCI 2  
FARIBAULT N/A 7 0 72 S8 30.61F WCI -6  
OWATONNA FAIR 7 0 72 S8 30.61F WCI -6  
WASECA FAIR 5 0 78 S8 30.63F WCI -8  
ALBERT LEA FAIR 9 1 72 S6 30.62F WCI -1  

 
MNZ078>079-086>088-094>096-210100-  
SOUTHEAST MINNESOTA  
 
CITY SKY/WX TMP DP RH WIND PRES REMARKS
 
ROCHESTER FAIR 0 -8 69 S8 30.61F WCI -14  
6HR MIN TEMP: 0; 6HR MAX TEMP: 7;  
 
RED WING FAIR 9 -8 47 SW8 30.64F WCI -4  
STANTON FAIR 5 -4 66 S6 30.61F WCI -6  
DODGE CENTER FAIR 3 -6 66 S9 30.60F WCI -11  
WINONA FAIR 12 -4 48 SW3 30.68F  
AUSTIN FAIR 7 0 72 SW3 30.63F  
PRESTON FAIR 4 -7 60 SW7 30.63F WCI -8  

 
ABBREVIATIONS USED IN REMARKS  
TC - TEMPERATURES IN CELSIUS  
WCI - WIND CHILL INDEX  
HX - HEAT INDEX  
VSB - VISIBILITY  

 
 
 
CLICK HERE TO GO TO PREVIOUS BULLETINS.

The Nexlab MN Page Main Text Page